IUS DEB, 43366

Orbit data source: Space-Track

IUS DEB, 43366 is space debris originally from a launch on Fri, 23 Jul 1999 UTC launched from the Air Force Eastern Test Range (AFETR). Debris objects in space refer to the collection of defunct objects orbiting the Earth. Examples of debris include non-operational satellites, rocket bodies, and fragments generated from explosions, collisions, or faulty payload assembly.

Loading next visibility...
Identifier
43366, 1999-040P
Orbit
Active
Country
Flag of USUS
Related business
Manufacturer
Boeing/Kent
Mission
Spacecraft
Bus & Motor
Unknown
Mass
Unknown
Launch date (UTC)
1999-07-23 (27 years ago)
Launch vehicle
Unknown
Launch site
Air Force Eastern Test Range (AFETR)
Object type
Payload
Rocket body
Debris
Shape & HBR
Unknown shape, 0.1 m
Radar Cross Section
Small (<0.1 m²)

Expand to show TLE details & history
Last TLE update: 2 months ago

TLE from 2 months ago
0 IUS DEB
1 43366U 99040P   26116.99926381  .00001397  00000-0  60829-2 0  9994
2 43366  28.1438  20.3455 3828275 181.1644 177.6631  7.03561275264660
Epoch: 2026-04-26T23:58Z
TLE epoch observation values (Epoch: 2026-04-26T23:58:56.393Z)
Latitude
0.00001°
Longitude
165.61533°
Altitude
9,526.668 km
Speed
3.935 km/s
True Right ascension
01h 21m 22s
True Declination
0° 00' 00"
Sunlit
Object was in daylight at epoch
Visualization orbit readout
Latitude
Unknown
Longitude
Unknown
Altitude
Unknown
Speed
Unknown
Apparent Right ascension
Unknown
Apparent Declination
Unknown
Sunlit
N/A
Visualization observer readout
Local Sidereal Time
21:36:55
Azimuth
Unknown
Elevation
Unknown
Doppler factor
Unknown
Orbital elements
Apogee altitude
9,535.067 km
Perigee altitude
724.117 km
Semi-major axis
11,507.729 km
Eccentricity
0.38283
Inclination
28.1438°
RAAN
20.3455°
Arg. of periapsis
181.1644°
True anomaly
178.87092°
Mean anomaly
177.6631°
Eccentric anomaly
178.30999°
Mean motion
1.75816 °/min
Orbital period
204.76 mins
BSTAR
0.0060829
Loading maneuver chart data...
Computing Atmospheric mass density...
Loading historical data...
Loading historical data...
Loading historical data...
Loading historical data...
Loading historical data...
Loading historical data...
Loading historical data...

Documentation

Showing up to 5 results
|